Weather History for Kalamazoo, MI

Change the Weather History Date:

Monday, July 1, 2013

  Actual Average Record
Temperature  
Mean Temperature 65 °F 72 °F  
Max Temperature 75 °F 83 °F 96 °F (1953)
Min Temperature 55 °F 61 °F 43 °F (1950)
Degree Days  
Heating Degree Days 0 0  
Month to date heating degree days 0 0  
Since 1 June heating degree days 39 48  
Since 1 July heating degree days 0 0  
Cooling Degree Days 0 7  
Month to date cooling degree days 0 7  
Year to date cooling degree days 226 193  
Since 1 June cooling degree days 146 152  
Growing Degree Days 15 (Base 50)    
Moisture  
Dew Point 48 °F    
Average Humidity 51    
Maximum Humidity 63    
Minimum Humidity 38    
Precipitation  
Precipitation 0.00 in 0.09 in 1.31 in (2014)
Month to date precipitation 0.00 0.09  
Year to date precipitation 21.35 16.11  
Sea Level Pressure  
Sea Level Pressure 30.03 in    
Wind  
Wind Speed 8 mph (NE)    
Max Wind Speed 18 mph    
Max Gust Speed 26 mph    
Visibility 10 miles    
Events      
T = Trace of Precipitation, MM = Missing Value Source: NWS Daily Summary

Daily Weather History Graph

Daily Weather History Graph

Search for Another Location

Airport:

Trip Planner

Search our weather history database for the weather conditions in past years. The results will help you decide how hot, cold, wet, or windy it might be!

Date:

Astronomy

Jul. 01, 2013 Rise Set
Actual Time 6:09 AM EDT 9:22 PM EDT
Civil Twilight 5:35 AM EDT 9:56 PM EDT
Nautical Twilight 4:50 AM EDT 10:41 PM EDT
Astronomical Twilight 3:57 AM EDT 11:34 PM EDT
Moon 1:43 AM EDT (7/1) 3:33 PM EDT (7/1)
Length of Visible Light 16h 21m
Length of Day
15h 12m
Waning Crescent, 35% of the Moon is Illuminated
Jul 1
Waning Crescent
Jul 8
New
Jul 15
First Quarter
Jul 22
Full
Jul 29
Last Quarter

Hourly Weather History & Observations

Time (EDT) Temp. Dew Point Humidity Pressure Visibility Wind Dir Wind Speed Gust Speed Precip Events Conditions
12:53 AM 62.1 °F 43.0 °F 50% 29.98 in 10.0 mi NNE 4.6 mph - N/A   Clear
1:53 AM 60.1 °F 39.0 °F 46% 29.98 in 10.0 mi NNE 5.8 mph - N/A   Clear
2:53 AM 59.0 °F 37.9 °F 46% 29.98 in 10.0 mi NNE 5.8 mph - N/A   Clear
3:53 AM 55.9 °F 42.1 °F 60% 30.00 in 10.0 mi North 4.6 mph - N/A   Clear
4:53 AM 57.9 °F 44.1 °F 60% 29.99 in 10.0 mi NNE 6.9 mph - N/A   Clear
5:53 AM 60.1 °F 45.0 °F 57% 29.99 in 10.0 mi NE 4.6 mph - N/A   Clear
6:53 AM 61.0 °F 45.0 °F 56% 30.01 in 10.0 mi NE 4.6 mph - N/A   Clear
7:53 AM 62.1 °F 46.0 °F 56% 30.01 in 10.0 mi NE 8.1 mph - N/A   Clear
8:53 AM 63.0 °F 48.0 °F 58% 30.02 in 10.0 mi NE 6.9 mph - N/A   Clear
9:53 AM 66.0 °F 50.0 °F 56% 30.02 in 10.0 mi NE 9.2 mph 17.3 mph N/A   Clear
10:53 AM 69.1 °F 52.0 °F 54% 30.02 in 10.0 mi NE 6.9 mph - N/A   Clear
11:53 AM 72.0 °F 53.1 °F 51% 30.03 in 10.0 mi NNE 10.4 mph 18.4 mph N/A   Clear
12:53 PM 73.9 °F 55.0 °F 52% 30.04 in 10.0 mi NE 9.2 mph 20.7 mph N/A   Clear
1:53 PM 72.0 °F 52.0 °F 49% 30.04 in 10.0 mi NNE 9.2 mph 17.3 mph N/A   Partly Cloudy
2:53 PM 75.0 °F 48.9 °F 40% 30.04 in 10.0 mi NE 16.1 mph 26.5 mph N/A   Scattered Clouds
3:53 PM 73.9 °F 50.0 °F 43% 30.04 in 10.0 mi NE 10.4 mph 23.0 mph N/A   Partly Cloudy
4:53 PM 73.0 °F 50.0 °F 44% 30.04 in 10.0 mi Variable 6.9 mph 16.1 mph N/A   Mostly Cloudy
5:53 PM 75.0 °F 48.9 °F 40% 30.04 in 10.0 mi NE 8.1 mph 20.7 mph N/A   Clear
6:53 PM 73.9 °F 48.9 °F 41% 30.04 in 10.0 mi Variable 5.8 mph - N/A   Clear
7:53 PM 73.0 °F 50.0 °F 44% 30.04 in 10.0 mi NE 9.2 mph 19.6 mph N/A   Partly Cloudy
8:53 PM 70.0 °F 50.0 °F 49% 30.06 in 10.0 mi NE 5.8 mph - N/A   Clear
9:53 PM 66.9 °F 52.0 °F 59% 30.07 in 10.0 mi NE 5.8 mph - N/A   Clear
10:53 PM 66.0 °F 54.0 °F 65% 30.09 in 10.0 mi NNE 6.9 mph - N/A   Overcast
11:53 PM 64.9 °F 51.1 °F 61% 30.07 in 10.0 mi NNE 11.5 mph 18.4 mph N/A   Overcast